www.pogodaiklimat.ru

Погода и климат >> Архив погоды >> Беларусь >> Полесская


ПОГОДА в Полесской

  • Прогноз погоды в Полесской
  • Монитор погоды в Полесской

АРХИВ ПОГОДЫ в Полесской

Время (UTC), дата Ветер
(напр.,м/с)
 
Видим.   Явления Облачность Т
(С)
Тd
(С)
f
(%)
Тe
(С)
Тes
(С)
Комфортность P
(гПа)
Po
(гПа)
Тmin
(С)
Tmax
(С)
R
(мм)
R24
(мм)
S
(см)
00 11.06 СВ 2 10 км 4/0
[Ci fib]
+19.1 +16.9 87 +21 +21 комфорт 1019.0 1004.4
03 11.06 СВ 2 4000 м дымка 6/0
[Ci fib]
+17.1 +16.3 95 +17 +18 1019.0 1004.3 +16.9
06 11.06 ЮВ 2 10 км 4/0
[Ci fib]
+24.3 +18.9 72 +29 +34 душно 1019.0 1004.7 +16.9
09 11.06 ЮВ 3 10 км 6/3 600 м
[Cu hum Ci fib]
+28.6 +18.9 56 +34 +39 очень
душно
1019.0 1004.9
12 11.06 ЮВ 3 10 км 10/5 600 м
[Cu hum Ci fib]
+30.1 +17.9 48 +35 +35 очень
душно
1017.0 1003.0
15 11.06 ЮВ 2 10 км 10/5 600 м
[Cu hum Ci fib]
+29.5 +17.6 49 +34 +34 очень
душно
1017.0 1002.9
18 11.06 ЮВ 2 10 км 10/1 600 м
[Sc Ci fib]
+26.9 +18.7 61 +32 +32 очень
душно
1017.0 1002.8 +30.9
21 11.06 ЮВ 1 10 км 10/0
[Ci fib]
+19.9 +17.7 87 +24 +24 комфорт 1018.0 1003.5
00 12.06 штиль 0 10 км 10/0
[Ci fib]
+17.5 +15.8 90 +17 +17 1017.0 1002.4
03 12.06 ЮВ 1 10 км 8/0
[Ci fib]
+16.3 +15.2 93 +17 +17 1018.0 1003.3 +15.5
06 12.06 штиль 0 10 км 6/0
[Ci fib]
+26.3 +19.9 68 +32 +36 очень
душно
1017.0 1002.8 +15.5
09 12.06 Ю 2 10 км 10/3 600 м
[Cu hum Ci fib]
+30.3 +19.0 51 +36 +36 очень
душно
1017.0 1003.0
12 12.06 ЮВ 1 10 км 10/6 600 м
[Sc Ci fib]
+31.4 +16.2 40 +34 +34 душно 1016.0 1002.0
15 12.06 Ю 1 10 км 10/6 600 м
[Sc Ci fib]
+30.9 +17.6 45 +35 +35 очень
душно
1014.0 1000.0
18 12.06 ЮВ 1 10 км 10/4 600 м
[Sc Ci fib]
+28.5 +23.2 73 +38 +38 очень
душно
1015.0 1001.0 +32.4
21 12.06 Ю 1 10 км 4/0
[Ci fib]
+20.0 +18.1 89 +24 +24 комфорт 1016.0 1001.5
00 13.06 штиль 0 4000 м дымка 10/4 600 м
[Sc Ci fib]
+17.8 +16.7 93 +18 +18 1017.0 1002.4
03 13.06 В 1 4000 м дымка 10/4 600 м
[Sc Ci fib]
+17.1 +16.3 95 +18 +18 1017.0 1002.3 +16.2
06 13.06 штиль 0 10 км 6/0
[Ci fib]
+26.3 +20.4 70 +33 +36 очень
душно
1017.0 1002.8 +16.2
09 13.06 Ю 2 10 км 10/3 300 м
[Cu hum Ci fib]
+30.4 +18.1 48 +35 +35 очень
душно
1017.0 1003.0
12 13.06 Ю 4 10 км 10/4 300 м
[Cu hum Ci fib]
+31.4 +15.3 38 +34 +34 душно 1017.0 1003.0
15 13.06 ЮВ 4 10 км 10/3 300 м
[Cu hum Ci fib]
+30.4 +16.8 44 +34 +34 очень
душно
1015.0 1001.0
18 13.06 ЮВ 2 10 км 10/3 600 м
[Sc Ci fib]
+26.1 +20.2 70 +32 +32 очень
душно
1016.0 1001.8 +31.5
21 13.06 СВ 2 10 км 8/3 600 м
[Sc Ci fib]
+21.1 +18.3 84 +25 +25 комфорт 1018.0 1003.5
00 14.06 В 2 10 км 4/0
[Ci fib]
+18.9 +17.2 90 +21 +21 комфорт 1018.0 1003.4
03 14.06 СВ 2 10 км 6/0
[Ci fib]
+16.0 +14.9 93 +16 +16 1019.0 1004.2 +16.0
06 14.06 Ю 2 10 км 10/0
[Ci fib]
+22.9 +17.4 71 +28 +28 душно 1019.0 1004.6 +16.0
09 14.06 ЮВ 4 10 км 8/1 600 м
[Cu hum Ci fib]
+28.6 +15.8 46 +32 +32 душно 1018.0 1003.9
12 14.06 Ю 4 10 км 10/3 600 м
[Cu hum Ci fib]
+31.6 +14.2 35 +33 +33 жарко 1017.0 1003.0
15 14.06 СЗ 1
{10}
10 км гроза без осадков 10/6 600 м
[Cb cap Ci fib]
+25.2 +17.1 61 +29 +29 душно 1017.0 1002.7
18 14.06 СЗ 2 10 км {гроза} 10/3 600 м
[Sc Ci fib]
+25.6 +18.8 66 +31 +31 очень
душно
1017.0 1002.8 +31.8
21 14.06 штиль 0 10 км 10/0
[Ci fib]
+18.8 +17.5 92 +20 +20 1019.0 1004.4
00 15.06 штиль 0 4000 м дымка 10/0
[Ci fib]
+15.6 +14.6 94 +15 +15 1019.0 1004.2
03 15.06 С 2 4000 м дымка 10/0
[Ci fib]
+15.1 +14.6 97 +15 +15 1019.0 1004.2 +14.1
06 15.06 СВ 2 10 км 10/0
[Ci fib]
+24.2 +19.0 73 +29 +29 душно 1018.0 1003.7 +14.1
09 15.06 ЮВ 1 10 км 10/3 600 м
[Cu hum Ci fib]
+28.1 +17.6 53 +32 +32 душно 1017.0 1002.9
12 15.06 СЗ 1 10 км 10/8 600 м
[Cb cap Ci fib]
+30.5 +16.1 42 +34 +34 очень
душно
1016.0 1002.0
15 15.06 СВ 2 10 км 10/3 600 м
[Cu hum Ci fib]
+29.2 +19.5 56 +35 +35 очень
душно
1015.0 1001.0
18 15.06 СВ 2 10 км 10/0
[Ci fib]
+26.4 +19.3 65 +32 +32 очень
душно
1014.0 999.9 +31.2
21 15.06 В 2 10 км 10 баллов +20.8 +16.6 77 +25 +25 комфорт 1015.0 1000.6
00 16.06 В 3 10 км 10/4 600 м
[Sc Ci fib]
+18.7 +14.8 78 +20 +20 1015.0 1000.4
03 16.06 СВ 3 10 км 10/0
[Ci fib]
+17.9 +13.2 74 +18 +18 1014.0 999.4 +17.5
06 16.06 В 3 10 км 10/0
[Ci fib]
+22.8 +15.9 65 +27 +27 душно 1014.0 999.7 +17.5
09 16.06 ЮВ 5 10 км 10/0
[Ac trans Ci fib]
+25.7 +17.1 59 +30 +30 душно 1014.0 999.8
12 16.06 В 3 10 км 10/0
[Ac trans Ci fib]
+29.5 +19.2 54 +35 +35 очень
душно
1013.0 999.0
15 16.06 ЮВ 4 10 км гроза без осадков 10/8 600 м
[Cb cap Ac trans Ci fib]
+28.7 +20.4 61 +35 +35 очень
душно
1011.0 997.0
18 16.06 В 2 10 км гроза без осадков {ливн. осадки} 9/9 600 м
[Cb cap]
+20.4 +18.0 86 +25 +25 комфорт 1014.0 999.6 +30.0 0.0
21 16.06 штиль 0 4000 м в посл. час гроза 10/4 600 м
[Cb cap Ci fib]
+18.0 +16.7 92 +18 +18 1015.0 1000.4
00 17.06 штиль 0 4000 м дымка 10 баллов +16.2 +15.2 94 +16 +16 1015.0 1000.3
03 17.06 С 1 200 м туман н/о +16.7 +16.5 99 +18 +18 1016.0 1001.3 +14.5
06 17.06 С 3 4000 м туман 10 баллов +18.8 +17.1 90 +20 +20 1017.0 1002.4 +14.5
09 17.06 СЗ 5 10 км 10 баллов +21.1 +17.7 81 +25 +25 комфорт 1017.0 1002.5
12 17.06 СЗ 5 10 км 10 баллов +24.1 +15.6 59 +27 +27 жарко 1017.0 1002.7
15 17.06 СЗ 5 10 км 10 баллов +21.7 +14.3 63 +25 +25 комфорт 1018.0 1003.5
18 17.06 СЗ 3 10 км 10 баллов +19.3 +15.2 77 +21 +21 комфорт 1018.0 1003.4 +24.5
21 17.06 СЗ 2 10 км 10 баллов +18.6 +15.1 80 +20 +20 1019.0 1004.4

 

Местоположение метеостанции Полесская (Брестская область, Беларусь): широта 52.30 долгота 26.70 высота над уровнем моря 124 м.

В архиве по умолчанию представлена погода в Полесской за последнюю неделю. Архивные данные за месяц целиком и за предыдущие месяцы, начиная с января 2011 года, Вы можете получить, выбрав интересующий диапазон дат из раскрывающегося списка и нажав кнопку "Ввод!".


*Определитесь, кто Вы:
робот инопланетянин человек

Внимание! Время в таблицах - всемирное. Для получения местного времени необходимо прибавить поправку, которая равна 3 ч.

Смотрите также архив погоды в соседних городах и на ближайших метеорологических станциях:

Погода в Пинске (Брестская область, Беларусь) (48 км)
Погода в Ганцевичах (Брестская область, Беларусь) (53 км)
Погода в Житковичах (Гомельская область, Беларусь) (80 км)
Погода в Слуцке (Минская область, Беларусь) (99 км)
Погода в Ивацевичах (Брестская область, Беларусь) (101 км)
Погода в Барановичах (Брестская область, Беларусь) (105 км)
Погода в Дрогичине (Брестская область, Беларусь) (110 км)
Погода в Сарнах (Ровенская область, Украина) (114 км)
Погода в Любешове (Волынская область, Украина) (120 км)
Погода в Столбцах (Минская область, Беларусь) (131 км)

Пояснения к столбцам:

Ветер - указаны скорость ветра в м/с - средняя за 10 мин, порывы в срок и между сроками (в фигурных скобках) и направление, откуда дует ветер: С - северный, СВ - северо-восточный, В - восточный, ЮВ - юго-восточный, Ю - южный, ЮЗ - юго-западный, З - западный, СЗ - северо-западный.
Видимость - горизонтальная дальность видимости в метрах или километрах. При видимости от 1 до 10 км при отсутствии осадков обычно наблюдается дымка, при ухудшении видимости до 1 км и менее - туман. В сухую погоду видимость может ухудшаться дымом, пылью или мглою.
Явления - указаны атмосферные явления, наблюдавшиеся в срок или в последний час перед сроком; фигурными скобками обозначены явления, наблюдавшиеся между сроками (за 1-3 часа до срока); квадратными скобками обозначены град или гололедные отложения с указанием их диаметра в мм.
Облачность - указаны через наклонную черту общая и нижняя облачность в баллах и высота нижней границы облаков в метрах; квадратными скобками обозначены формы облаков: Ci - перистые, Cs - перисто-слоистые, Cc - перисто-кучевые, Ac - высококучевые, As - высокослоистые, Sc - слоисто-кучевые, Ns - слоисто-дождевые, Cu - кучевые, Cb - кучево-дождевые. Подробнее классификацию облаков см. в Атласе облаков (PDF).
T - Температура воздуха - температура, измеренная на высоте 2 м над землей.
Td - Температура точки росы - температура, при понижении до которой содержащийся в воздухе водяной пар достигнет насыщения.
f - Относительная влажность воздуха - влажноcть воздуха, измеренная на высоте 2 м над землей.
Te - Эффективная температура - температура, которую ощущает одетый по сезону человек в тени. Характеристика душности погоды. При расчете учитывается влияние влажности воздуха и скорости ветра на теплоощущения человека.
Tes - Эффективная температура на солнце - температура, которую ощущает человек, с поправкой на солнечный нагрев. Характеристика знойности погоды. Зависит от высоты солнца над горизонтом, облачности и скорости ветра. Ночью, в пасмурную погоду, а также при ветре 12 м/с и более поправка равна нулю.
P - Атмосферное давление - приведенное к уровню моря атмосферное давление.
Po - Атмосферное давление - измеренное на уровне метеостанции атмосферное давление.
Tmin - Минимальная температура - минимум температуры воздуха на высоте 2 м над землей.
Tmax - Максимальная температура - максимум температуры воздуха на высоте 2 м над землей.
R - Количество осадков - Количество выпавших осадков за период времени, мм. При наведении курсора мыши на число - период времени, за который выпало указанное количество осадков.
R24 - Количество осадков - Количество выпавших осадков за 24 часа, мм.
S - Снежный покров - Высота снежного покрова, см. При наведении курсора мыши на число - состояние снежного покрова и степень покрытия местности в баллах.